Weather History for Miramar MCAS, CA

Change the Weather History Date:

Sunday, October 6, 2013

  Actual Average Record
Temperature  
Mean Temperature 72 °F -  
Max Temperature 89 °F 74 °F 93 °F (2005)
Min Temperature 55 °F 55 °F 51 °F (1998)
Cooling Degree Days 7    
Growing Degree Days 22 (Base 50)    
Moisture  
Dew Point 21 °F    
Average Humidity 17    
Maximum Humidity 44    
Minimum Humidity 5    
Precipitation  
Precipitation 0.00 in - - ()
Sea Level Pressure  
Sea Level Pressure 30.00 in    
Wind  
Wind Speed 6 mph (North)    
Max Wind Speed 13 mph    
Max Gust Speed -    
Visibility 10 miles    
Events      
Averages and records for this station are not official NWS values.
T = Trace of Precipitation, MM = Missing Value Source: NWS Daily Summary

Daily Weather History Graph

Daily Weather History Graph

Search for Another Location

Airport:

Trip Planner

Search our weather history database for the weather conditions in past years. The results will help you decide how hot, cold, wet, or windy it might be!

Date:

Astronomy

Oct. 06, 2013 Rise Set
Actual Time 6:46 AM PDT 6:26 PM PDT
Civil Twilight 6:21 AM PDT 6:50 PM PDT
Nautical Twilight 5:53 AM PDT 7:19 PM PDT
Astronomical Twilight 5:24 AM PDT 7:47 PM PDT
Moon 8:28 AM PDT (10/6) 7:37 PM PDT (10/6)
Length of Visible Light 12h 29m
Length of Day
11h 39m
Waxing Crescent, 4% of the Moon is Illuminated
Oct 6
Waxing Crescent
Oct 11
First Quarter
Oct 18
Full
Oct 26
Last Quarter
Nov 3
New

Hourly Weather History & Observations

Time (PDT) Temp. Dew Point Humidity Pressure Visibility Wind Dir Wind Speed Gust Speed Precip Events Conditions
12:55 AM 59.0 °F 15.1 °F 18% 30.05 in 10.0 mi Calm Calm - N/A   Clear
1:55 AM 57.0 °F 15.1 °F 19% 30.05 in 10.0 mi Calm Calm - N/A   Clear
2:55 AM 55.9 °F 15.1 °F 20% 30.04 in 10.0 mi NE 8.1 mph - N/A   Clear
3:55 AM 59.0 °F 16.0 °F 19% 30.04 in 10.0 mi East 8.1 mph - N/A   Clear
4:55 AM 57.9 °F 17.1 °F 20% 30.03 in 10.0 mi ENE 8.1 mph - N/A   Clear
5:55 AM 59.0 °F 16.0 °F 19% 30.03 in 10.0 mi ENE 10.4 mph - N/A   Clear
6:55 AM 57.9 °F 15.1 °F 19% 30.04 in 10.0 mi ENE 11.5 mph - N/A   Clear
7:55 AM 69.1 °F 14.0 °F 12% 30.04 in 10.0 mi Calm Calm - N/A   Partly Cloudy
8:55 AM 79.0 °F 12.9 °F 8% 30.05 in 10.0 mi Calm Calm - N/A   Partly Cloudy
9:55 AM 82.9 °F 16.0 °F 8% 30.05 in 10.0 mi SSE 3.5 mph - N/A   Partly Cloudy
10:55 AM 86.0 °F 10.9 °F 6% 30.04 in 10.0 mi Variable 3.5 mph - N/A   Clear
11:55 AM 89.1 °F 10.0 °F 5% 30.02 in 10.0 mi NNW 8.1 mph - N/A   Partly Cloudy
12:55 PM 88.0 °F 15.1 °F 7% 30.00 in 10.0 mi West 9.2 mph - N/A   Partly Cloudy
1:55 PM 89.1 °F 12.9 °F 6% 29.98 in 10.0 mi NW 11.5 mph - N/A   Partly Cloudy
2:55 PM 87.1 °F 19.0 °F 8% 29.97 in 10.0 mi NW 11.5 mph - N/A   Partly Cloudy
3:55 PM 86.0 °F 25.0 °F 11% 29.95 in 10.0 mi NW 12.7 mph - N/A   Partly Cloudy
4:55 PM 84.9 °F 12.9 °F 7% 29.95 in 10.0 mi NW 12.7 mph - N/A   Scattered Clouds
5:55 PM 80.1 °F 28.0 °F 15% 29.95 in 10.0 mi NW 11.5 mph - N/A   Scattered Clouds
6:55 PM 73.9 °F 30.9 °F 21% 29.96 in 10.0 mi NNW 6.9 mph - N/A   Scattered Clouds
7:55 PM 73.9 °F 30.0 °F 20% 29.96 in 10.0 mi North 6.9 mph - N/A   Partly Cloudy
8:55 PM 72.0 °F 34.0 °F 25% 29.96 in 10.0 mi NW 9.2 mph - N/A   Partly Cloudy
9:55 PM 69.1 °F 46.0 °F 44% 29.97 in 10.0 mi NNW 6.9 mph - N/A   Partly Cloudy
10:55 PM 60.1 °F 37.0 °F 42% 29.97 in 10.0 mi East 4.6 mph - N/A   Scattered Clouds
11:55 PM 57.0 °F 33.1 °F 40% 29.95 in 10.0 mi SE 3.5 mph - N/A   Scattered Clouds